Dillon, MT

1:20 PM MST on February 17, 2018 (GMT -0700)
Dillon

Weather History for KDLN - October, 2013

Change the Weather History Date:

Thursday, October 31, 2013

  Actual Average Record
Temperature  
Mean Temperature 42 °F 38 °F  
Max Temperature 54 °F 50 °F 69 °F (2014)
Min Temperature 30 °F 26 °F -6 °F (2002)
Degree Days  
Heating Degree Days 23    
Month to date heating degree days 758  
Since 1 July heating degree days 1005  
Cooling Degree Days 0    
Month to date cooling degree days 0  
Year to date cooling degree days 247  
Moisture  
Dew Point 28 °F    
Average Humidity 67    
Maximum Humidity 92    
Minimum Humidity 42    
Precipitation  
Precipitation T in 0.02 in 0.13 in (1945)
Month to date precipitation 0.01 0.76  
Year to date precipitation 9.47 9.93  
Snow  
Snow 0.00 in - - ()
Snow Depth 0.00 in    
Sea Level Pressure  
Sea Level Pressure 29.98 in    
Wind  
Wind Speed 13 mph (SW)    
Max Wind Speed 25 mph    
Max Gust Speed 31 mph    
Visibility 10 miles    
Events Rain , Snow    
T = Trace of Precipitation, MM = Missing Value Source: NWS Daily Summary

Daily Weather History Graph

Daily Weather History Graph

Search for Another Location

Airport or City:

Trip Planner

Search our weather history database for the weather conditions in past years. The results will help you decide how hot, cold, wet, or windy it might be!

Date:

Astronomy

Oct. 31, 2013 Rise Set
Actual Time 8:08 AM MDT 6:18 PM MDT
Civil Twilight 7:37 AM MDT 6:49 PM MDT
Nautical Twilight 7:02 AM MDT 7:24 PM MDT
Astronomical Twilight 6:28 AM MDT 7:58 PM MDT
Moon 4:53 AM MDT (10/31) 4:45 PM MDT (10/31)
Length of Visible Light 11h 11m
Length of Day
10h 10m
Waning Crescent, 9% of the Moon is Illuminated
Oct 31
Waning Crescent
Nov 3
New
Nov 9
First Quarter
Nov 17
Full
Nov 25
Last Quarter

Hourly Weather History & Observations

Time (MDT) Temp. Windchill Dew Point Humidity Pressure Visibility Wind Dir Wind Speed Gust Speed Precip Events Conditions
12:53 AM 37.9 °F 30.0 °F 24.1 °F 57% 29.97 in 9.0 mi SSW 12.7 mph - 0.00 in Snow Light Snow
1:53 AM 37.9 °F 30.0 °F 25.0 °F 60% 29.95 in 9.0 mi SSW 12.7 mph - 0.00 in Snow Light Snow
2:53 AM 37.9 °F 29.2 °F 23.0 °F 55% 29.95 in 9.0 mi SW 15.0 mph - 0.00 in Snow Light Snow
3:53 AM 37.0 °F 28.1 °F 24.1 °F 59% 29.95 in 9.0 mi SW 15.0 mph - 0.00 in   Overcast
4:53 AM 35.1 °F 25.9 °F 24.1 °F 64% 29.96 in 10.0 mi SW 13.8 mph - N/A   Partly Cloudy
5:53 AM 34.0 °F 25.0 °F 24.1 °F 67% 29.99 in 10.0 mi SSW 12.7 mph - N/A   Clear
6:53 AM 35.1 °F 25.9 °F 24.1 °F 64% 30.01 in 10.0 mi SSW 13.8 mph - N/A   Mostly Cloudy
7:53 AM 37.9 °F 29.2 °F 24.1 °F 57% 30.01 in 10.0 mi SSW 15.0 mph - N/A   Overcast
8:53 AM 39.0 °F 29.6 °F 24.1 °F 55% 30.00 in 10.0 mi SSW 18.4 mph 24.2 mph N/A   Overcast
9:53 AM 39.9 °F 31.1 °F 25.0 °F 55% 30.00 in 10.0 mi WSW 17.3 mph - N/A   Overcast
10:53 AM 41.0 °F 31.6 °F 27.0 °F 57% 29.97 in 10.0 mi SW 20.7 mph 26.5 mph N/A   Overcast
11:53 AM 43.0 °F 36.0 °F 28.9 °F 58% 29.98 in 10.0 mi SSW 13.8 mph - N/A   Overcast
12:53 PM 46.0 °F 38.5 °F 28.9 °F 51% 29.94 in 10.0 mi SW 19.6 mph 24.2 mph N/A   Overcast
1:53 PM 51.1 °F - 30.0 °F 44% 29.88 in 10.0 mi WSW 16.1 mph 28.8 mph N/A   Mostly Cloudy
2:53 PM 50.0 °F - 28.9 °F 44% 29.89 in 10.0 mi WSW 21.9 mph 29.9 mph N/A   Mostly Cloudy
3:53 PM 48.9 °F - 30.0 °F 48% 29.91 in 10.0 mi West 23.0 mph 28.8 mph N/A   Mostly Cloudy
4:53 PM 48.0 °F - 30.0 °F 50% 29.92 in 10.0 mi West 18.4 mph 23.0 mph N/A   Mostly Cloudy
5:53 PM 48.0 °F - 28.0 °F 46% 29.94 in 10.0 mi West 19.6 mph 25.3 mph N/A   Overcast
6:10 PM 42.8 °F 35.8 °F 33.8 °F 70% 29.96 in 10.0 mi ENE 13.8 mph 20.7 mph N/A   Overcast
6:53 PM 41.0 °F 38.0 °F 34.0 °F 76% 30.01 in 10.0 mi NNE 4.6 mph - N/A   Overcast
7:24 PM 39.2 °F 35.0 °F 33.8 °F 81% 30.01 in 10.0 mi NNW 5.8 mph - 0.00 in Rain Light Rain
7:49 PM 39.2 °F 37.0 °F 33.8 °F 81% 30.01 in 10.0 mi West 3.5 mph - 0.00 in   Overcast
7:53 PM 37.9 °F 35.5 °F 34.0 °F 86% 30.03 in 10.0 mi WSW 3.5 mph - 0.00 in   Overcast
8:53 PM 37.9 °F - 35.1 °F 89% 30.04 in 10.0 mi Calm Calm - 0.00 in   Partly Cloudy
9:53 PM 32.0 °F 25.6 °F 30.0 °F 92% 30.09 in 10.0 mi SE 6.9 mph - N/A   Clear
10:53 PM 32.0 °F 28.7 °F 30.0 °F 92% 30.11 in 10.0 mi SSE 3.5 mph - N/A   Mostly Cloudy
11:53 PM 33.1 °F - 27.0 °F 78% 30.11 in 10.0 mi Calm Calm - N/A   Mostly Cloudy